Location: Jacksons Gap
(32.8862°N, 85.8116°W)
Time: 04:43:41
(UTC+00:00)

Daily predictions for brighter satellites

Satellite Brightness Start Highest point End
(mag) Time Altitude Azimuth Time Altitude Azimuth Time Altitude Azimuth
NOSS 3-1 (A) 4.3 00:10:30 10° NNW 00:18:30 80° ENE 00:27:24 10° SSE
Meteor 1-24 Rocket 4.2 00:19:48 10° NNE 00:24:44 35° ENE 00:29:33 10° SE
KORONAS-FOTON 3.9 00:23:41 10° N 00:27:24 51° E 00:31:04 10° SSE
CSL-04 Debris 4.2 00:24:06 10° SSE 00:29:33 72° ENE 00:35:01 10° N
Cosmos 1544 Rocket 3.9 00:29:19 10° SSE 00:33:28 44° E 00:37:40 10° NNE
Cosmos 1626 3.5 00:31:06 10° NNE 00:33:50 19° ENE 00:36:34 10° SE
CZ-2D R/B 3.3 00:30:45 10° S 00:34:34 87° WSW 00:38:23 10° NNW
Cosmos 1939 Rocket 3.0 00:31:45 10° S 00:35:44 77° W 00:39:40 10° NNW
Cosmos 1766 3.7 00:32:48 10° SSW 00:36:46 69° W 00:40:45 10° N
Okean 1-7 Rocket 3.8 00:33:50 10° N 00:38:05 48° E 00:42:18 10° SSE
SL-14 R/B 4.4 00:34:57 10° NNE 00:38:20 25° ENE 00:41:41 10° SE
Cosmos 371 Rocket 3.6 00:35:49 10° NNW 00:40:37 71° WSW 00:45:26 10° S
S3M 4.2 00:34:45 10° S 00:41:06 82° W 00:47:32 10° N
H-2A R/B 2.9 00:38:10 10° SE 00:42:47 31° ENE 00:47:19 10° N
STARLINK-1118 1.9 00:42:27 10° NW 00:44:31 56° NE 00:45:55 17° ESE
Meteor 2-16 Rocket 4.5 00:40:02 10° N 00:46:13 86° E 00:52:22 10° S
Meteor 1-22 Rocket 4.1 00:41:17 10° S 00:46:36 87° W 00:51:54 10° N
Cosmos 1386 Rocket 4.4 00:40:50 10° N 00:46:51 71° E 00:52:50 10° SSE
Cosmos 1943 Rocket 3.9 00:46:04 10° NNE 00:48:54 14° NE 00:51:03 12° E
Cosmos 1943 4.4 00:45:31 10° SE 00:49:13 18° E 00:52:56 10° ENE
ADEOS Rocket 4.2 00:47:21 10° N 00:53:31 48° WNW 00:59:06 10° SW
GEOS 3 Rocket 3.9 00:48:30 10° SSE 00:53:34 71° WSW 00:58:44 10° NW
OAO 3 Copernicus 4.5 00:52:50 10° W 00:57:51 68° N 01:01:44 17° E
IRS-1A Rocket 4.5 00:52:57 10° SE 00:58:21 50° ENE 01:03:51 10° N
USA 234 3.2 00:53:06 10° NE 00:59:39 78° SE 01:06:11 10° SW
CSL-04 Rocket 4.4 00:57:56 10° S 01:03:08 54° WSW 01:08:19 10° NNW
CZ-3 Stage 3 3.9 00:57:53 10° SW 01:03:39 64° SSE 01:36:35 10° E
Cosmos 1953 3.2 01:02:28 17° SE 01:04:37 26° E 01:07:57 10° NNE
Cosmos 2251 Rocket 3.9 01:01:17 10° S 01:06:16 41° E 01:11:17 10° NNE
SL-16 R/B 3.1 01:01:57 10° SW 01:07:28 53° WNW 01:13:00 10° N
SEDSat Delta rocket 3.2 01:03:22 10° WSW 01:08:02 54° SSE 01:10:19 25° E
FREGAT/IRIS 2.8 01:08:12 35° E 01:08:33 37° ENE 01:11:07 10° N
MONITOR-E 4.3 01:12:44 37° ENE 01:12:44 37° ENE 01:15:01 10° N
FALCON 9 R/B 4.3 01:05:28 10° W 01:12:59 68° S 01:41:59 23° ESE
MOS 1 Rocket 4.4 01:10:38 10° NE 01:15:15 29° E 01:17:44 20° SE
STARLINK-1066 2.9 01:14:33 10° NW 01:17:40 61° NE 01:18:20 47° E
SJ-11-01 4.3 01:13:07 10° S 01:17:47 82° WSW 01:22:31 10° NNW
STARLINK-1094 4.3 01:14:12 10° NNW 01:18:04 39° NE 01:19:18 31° E
STARLINK-1081 2.9 01:15:01 10° NW 01:18:07 62° NE 01:18:43 48° E
STARLINK-1070 2.9 01:15:28 10° NW 01:18:33 63° NE 01:19:09 49° E
STARLINK-1069 2.9 01:15:54 10° NW 01:19:02 64° NE 01:19:37 49° E
STARLINK-1085 2.9 01:16:20 10° NW 01:19:27 65° NE 01:20:03 50° E
STARLINK-1086 2.8 01:16:49 10° NW 01:19:55 66° NE 01:20:27 52° E
STARLINK-1095 2.8 01:17:16 10° NW 01:20:22 67° NE 01:20:53 53° E
STARLINK-1077 2.8 01:17:43 10° NW 01:20:48 68° NE 01:21:19 54° E
STARLINK-1075 2.8 01:18:11 10° NW 01:21:16 69° NE 01:21:45 55° E
STARLINK-1093 2.8 01:18:34 10° NW 01:21:43 70° NE 01:22:13 55° ESE
CZ-2C R/B 3.8 01:17:29 10° NNE 01:22:08 56° E 01:26:40 10° S
STARLINK-1074 2.8 01:19:02 10° NW 01:22:10 71° NE 01:22:39 57° ESE
STARLINK-1087 2.7 01:19:31 10° NW 01:22:37 72° NE 01:23:03 59° ESE
STARLINK-1117 4.1 01:18:59 10° NNW 01:22:55 43° NE 01:23:57 35° E
STARLINK-1088 2.7 01:19:58 10° NW 01:23:04 73° NE 01:23:29 60° ESE
STARLINK-1115 2.8 01:20:23 10° NW 01:23:32 74° NE 01:23:57 60° ESE
STARLINK-1076 2.8 01:20:49 10° NW 01:23:58 75° NE 01:24:23 61° ESE
STARLINK-1092 2.7 01:21:16 10° NW 01:24:25 76° NE 01:24:49 62° ESE
STARLINK-1080 2.7 01:21:46 10° NW 01:24:52 77° NE 01:25:13 65° ESE
STARLINK-1090 2.7 01:22:12 10° NW 01:25:19 78° NE 01:25:39 66° ESE
STARLINK-1089 2.7 01:22:39 10° NW 01:25:46 79° NE 01:26:04 68° ESE
STARLINK-1107 2.7 01:23:07 10° NW 01:26:13 80° NE 01:26:31 69° ESE
TSX-5 4.3 01:22:25 10° N 01:26:49 40° ENE 01:27:22 38° E
STARLINK-1078 4.0 01:23:45 10° NNW 01:27:44 48° NE 01:28:35 41° E
Cosmos 1603 3.7 01:23:56 10° S 01:29:27 58° ESE 01:34:58 10° NNE
ATLAS 3B CENTAUR R/B 3.9 01:27:35 10° WSW 01:30:30 13° SW 01:32:39 10° SSW
Resurs 01 Rocket 3.3 01:32:31 18° NE 01:32:31 18° NE 01:34:34 10° NNE
STARLINK-1108 3.8 01:28:35 10° NW 01:32:37 53° NE 01:33:15 47° E
Meteor 1-16 Rocket 4.4 01:31:13 31° SE 01:32:58 41° E 01:38:00 10° NNE
Cosmos 1726 3.7 01:36:46 23° NE 01:36:46 23° NE 01:38:25 10° NNE
STARLINK-1071 3.6 01:33:23 10° NW 01:37:27 60° NE 01:37:54 55° ENE
ARGOS 3.1 01:34:14 15° SSE 01:38:50 90° WSW 01:44:16 10° NNW
Cosmos 1470 4.1 01:35:37 10° SSW 01:39:14 39° W 01:42:54 10° N
SL-08 RB Rocket 3.6 01:38:27 44° SE 01:39:44 67° ENE 01:44:15 10° N
CZ-2C R/B 2.7 01:35:14 10° NNE 01:40:14 49° E 01:41:45 38° SE
Cosmos 2184 Rocket 4.4 01:34:42 10° N 01:40:34 40° E 01:41:32 38° E
IRIDIUM 114 4.3 01:35:31 10° N 01:40:39 57° E 01:42:17 40° SE
Cosmos 2297 3.8 01:35:09 10° NNW 01:40:50 77° WSW 01:44:37 22° SSE
STARLINK-1110 3.5 01:38:12 10° NW 01:42:18 67° NE 01:42:34 65° ENE
Delta 128 4.3 01:37:38 10° WSW 01:42:31 49° S 01:43:38 42° SE
SPOT 3 Rocket 3.6 01:41:30 43° ESE 01:42:52 56° ENE 01:47:58 10° N
CZ-2C R/B 3.1 01:38:39 13° S 01:43:19 73° WSW 01:48:14 10° NNW
Ariane Rocket 3.7 01:39:02 10° S 01:43:57 52° W 01:48:54 10° NNW
ATLAS CENTAUR Rocket 4.4 01:39:29 10° W 01:46:34 73° S 10:59:26 10° SSE
STARLINK-1124 3.5 01:42:43 10° NW 01:46:52 75° NE 01:46:58 74° ENE
MetOp-A 4.2 01:45:45 47° ESE 01:46:53 57° ENE 01:52:07 10° N
IRIDIUM 103 4.2 01:44:37 10° N 01:49:50 72° E 01:51:26 45° SSE
BREEZE-M DEB (TANK) 2.3 01:45:24 10° NW 01:51:17 66° SW 01:51:17 66° SW
STARLINK-1122 3.5 01:47:58 10° NW 01:51:59 82° N 01:51:59 82° N
SJ-6B 3.3 01:53:03 41° SSW 01:54:12 61° W 01:58:17 10° NNW
USA 186 3.6 01:54:01 23° SW 01:55:22 32° W 01:58:29 10° NNW
STARLINK-1126 3.6 01:52:55 10° NW 01:56:45 76° NW 01:56:45 76° NW
Cosmos 1626 Rocket 4.5 01:54:28 10° NNW 01:58:39 46° W 02:01:03 23° SSW
Cosmos 1818 3.4 01:55:40 10° SSW 02:01:02 70° ESE 02:06:27 10° NNE
STARLINK-1082 3.9 01:57:48 10° NW 02:01:27 66° WNW 02:01:27 66° WNW
STARLINK-1100 4.1 02:02:42 10° NW 02:06:09 57° WNW 02:06:09 57° WNW
Cosmos 1602 Rocket 4.4 02:02:59 10° NNW 02:07:16 49° W 02:08:28 38° SW
Nadezhda 1 Rocket 3.9 02:06:35 58° SE 02:07:30 65° E 02:13:50 10° NNE
IRIDIUM 106 4.4 02:02:53 10° N 02:08:06 74° W 02:09:38 46° SSW
STARLINK-1083 4.4 02:07:39 10° NW 02:10:53 49° W 02:10:53 49° W
Cosmos 2369 Rocket 2.4 02:11:06 10° NNW 02:15:59 56° NNE 02:15:59 56° NNE
H-2A R/B 4.0 02:17:40 10° SSW 02:22:06 26° W 02:26:29 10° NW
Cosmos 2074 Rocket 4.1 02:26:28 10° NNW 02:32:41 70° W 02:33:33 62° SW
Cosmos 1943 4.0 02:27:22 10° SW 02:32:46 48° WNW 02:38:15 10° N
Cosmos 1943 Rocket 2.4 02:27:36 10° NNW 02:32:37 65° WNW 02:32:37 65° WNW
CZ-3A R/B 4.2 02:27:30 10° W 02:41:22 28° SW 02:42:43 26° SSW
ATLAS 2AS CENTAUR R/B 4.0 02:35:25 10° N 02:40:49 28° NE 02:40:49 28° NE
ATLAS 5 CENTAUR R/B 4.0 02:35:32 10° SW 03:17:35 - E 02:42:40 45° SSE
BREEZE-M DEB (TANK) 4.5 02:35:11 10° NW 02:58:39 89° NE 02:58:50 87° ESE
Resurs 01 Rocket 4.3 03:10:06 17° NW 03:10:06 17° NW 03:11:22 10° NW
Cosmos 2333 Rocket 4.1 08:21:44 10° N 08:24:02 23° N 08:24:02 23° N
ARIANE 5 R/B 4.3 08:55:45 10° N 08:57:47 23° NNW 08:57:47 23° NNW
Cosmos 2219 3.3 09:04:28 73° NE 09:04:28 73° NE 09:09:43 10° NNE
Cosmos 2297 Rocket 2.4 09:05:24 61° ESE 09:05:38 62° ESE 09:11:13 10° NNE
SL-4 R/B 3.7 09:07:47 31° NE 09:07:47 31° NE 09:11:25 10° E
USA 238 DEB 3.7 09:08:43 57° SSE 09:09:54 69° ESE 09:16:38 10° NE
USA 238 3.8 09:08:46 56° SSE 09:10:00 68° ESE 09:16:45 10° NE
ADEOS II 4.3 09:17:34 10° NNW 09:18:20 13° NNW 09:18:20 13° NNW
STARLINK-1068 4.5 09:22:08 47° E 09:22:08 47° E 09:25:23 10° NE
Cosmos 1634 Rocket 3.8 09:16:48 10° N 09:22:59 89° W 09:26:21 29° S
MSX 3.8 09:18:48 10° NNE 09:24:35 81° ESE 09:26:22 47° S
Okean 1-7 3.8 09:27:55 43° N 09:27:55 43° N 09:30:56 10° N
USA 234 3.7 09:20:59 10° ESE 09:27:23 62° NE 09:33:49 10° NW
COSMOS 2428 3.7 09:24:38 10° NNW 09:37:16 - S 09:27:35 31° NW
CZ-4B R/B 3.1 09:31:56 29° N 09:31:56 29° N 09:33:51 10° N
Cosmos 2227 Rocket 2.1 09:29:53 61° SSW 09:30:57 89° WNW 09:36:37 10° NNE
STARLINK-1060 3.9 09:31:44 65° E 09:31:44 65° E 09:35:25 10° NE
STARLINK-1031 3.8 09:33:55 71° NE 09:33:55 71° NE 09:37:39 10° NE
STARLINK-1030 3.7 09:36:29 76° ENE 09:36:29 76° ENE 09:40:22 10° NE
Meteor 1-19 Rocket 4.2 09:33:58 32° S 09:36:48 84° E 09:42:26 10° N
Cosmos 2142 Rocket 4.5 09:30:31 10° N 09:36:54 87° E 09:43:11 10° S
Cosmos 2219 Rocket 4.0 09:31:47 10° NNW 09:33:06 17° NW 09:33:06 17° NW
COSMOS 2441 4.2 09:33:12 10° N 09:38:00 84° WNW 09:38:49 62° SSW
NOSS 3-2 (A) 3.1 09:37:13 56° SW 09:38:26 77° WNW 09:44:35 10° NNE
COBE Rocket 3.7 09:39:40 65° W 09:39:40 65° W 09:44:23 10° NNW
STARLINK-1020 3.5 09:41:17 86° NNE 09:41:17 86° NNE 09:45:21 10° NE
PAYLOAD A 4.2 09:36:36 10° NNE 09:42:01 77° ESE 09:45:26 23° S
STARLINK-1052 3.4 09:46:04 78° WNW 09:46:11 79° NW 09:50:19 10° NE
IDEFIX/ARIANE 42P 3.1 09:42:41 10° N 09:47:14 38° WNW 09:47:14 38° WNW
Cosmos 1544 4.2 09:46:24 10° N 09:49:53 44° E 09:53:23 10° SSE
GPS 2-04 Rocket1 2.4 09:50:10 84° WSW 09:50:14 86° SSW 09:54:01 10° ESE
ASTRO E2 2.5 09:50:47 71° SSW 09:50:53 71° S 09:54:50 10° E
Cosmos 1980 3.7 09:45:56 10° NNW 09:51:36 81° ENE 09:57:15 10° SSE
Cosmos 1900 4.2 09:50:54 43° SSW 09:52:31 87° WNW 09:57:25 10° NNE
STARLINK-1033 3.6 09:55:36 56° W 09:56:06 63° NW 10:00:13 10° NE
CENTAUR R/B 2.4 09:58:29 21° SSW 10:02:20 78° ESE 10:08:49 10° NNE
H-2A R/B 4.2 09:58:58 10° NE 10:02:38 31° E 10:06:10 10° SSE
Cosmos 2082 3.6 09:59:34 23° SSW 10:03:17 82° WNW 10:09:01 10° NNE
NOSS 0 Rocket 3.9 09:58:55 10° NNW 10:04:56 57° WSW 10:10:54 10° S
NOSS 3-2 (C) 3.2 10:02:22 27° SW 10:05:34 79° WNW 10:11:45 10° NNE
STARLINK-1024 3.9 10:05:12 41° W 10:06:07 50° NW 10:10:09 10° NNE
SL-16 R/B 4.0 10:01:03 10° N 10:06:09 33° ENE 10:11:12 10° SE
Cosmos 389 Rocket 2.3 10:06:00 36° SSW 10:07:19 74° W 10:10:54 10° N
Meteor 1-31 Rocket 3.5 10:03:49 10° NNE 10:07:40 53° E 10:11:30 10° S
Cosmos 1048 Rocket 4.4 10:05:20 10° N 10:10:39 68° ENE 10:15:59 10° SSE
Cosmos 1515 4.3 10:10:53 35° WNW 10:10:53 35° WNW 10:14:17 10° NNW
STARLINK-1035 4.1 10:09:57 35° W 10:11:04 45° NW 10:15:03 10° NNE
Cosmos 1125 Rocket 3.6 10:08:17 25° SW 10:11:19 58° WNW 10:16:34 10° N
ADEOS 3.7 10:07:13 10° N 10:12:18 55° WNW 10:16:07 18° SW
Nadezhda 4 Rocket 4.0 10:06:41 10° S 10:12:58 87° W 10:19:20 10° N
STARLINK-1032 4.2 10:14:44 31° W 10:16:04 40° NW 10:20:00 10° NNE
Cosmos 2279 Rocket 4.1 10:13:04 10° NNW 10:19:01 50° W 10:25:00 10° SSW
SeaSat 1 2.3 10:15:19 10° SSE 10:20:14 78° WSW 10:25:11 10° NNW
STARLINK-1011 4.4 10:19:34 27° W 10:21:07 36° NW 10:24:58 10° NNE
Gblst 52 Del rocket 4.3 10:19:28 10° NW 10:25:27 79° NE 10:30:58 10° SE
STARLINK-60 3.9 10:26:36 10° NNW 10:29:48 49° NE 10:32:58 10° ESE
Meteor 2-4 Rocket 4.0 10:26:34 10° SSW 10:32:16 50° W 10:38:01 10° N
STARLINK-1022 4.4 10:28:43 10° SSW 10:32:41 48° SE 10:36:41 10° NE
Cosmos 468 4.5 10:28:23 10° NNW 10:33:40 64° WSW 10:38:54 10° S
CZ-2C R/B 2.9 10:29:52 10° N 10:33:58 34° WNW 10:37:40 12° SW
Meteor 1-12 Rocket 4.4 10:28:03 10° N 10:34:02 89° ENE 10:39:55 10° S
Cosmos 1689 Rocket 3.0 10:32:10 13° SSW 10:34:22 27° W 10:37:00 10° NW
Cosmos 2237 Rocket 2.5 10:29:08 10° NW 10:34:28 44° WSW 10:39:48 10° S
Okean 3 4.2 10:34:37 14° SW 10:37:31 30° W 10:41:13 10° NNW
STARLINK-1042 4.2 10:33:37 10° SSW 10:37:38 55° SE 10:41:41 10° NE
PSLV R/B 3.9 10:35:56 10° S 10:40:05 65° WSW 10:44:17 10° NNW
STARLINK-1056 4.0 10:38:32 10° SSW 10:42:37 62° SE 10:46:42 10° NE
Okean 1 Rocket 4.4 10:42:44 10° N 10:46:53 44° E 10:51:04 10° SSE
SL-4 R/B 2.9 10:43:32 10° WNW 10:47:12 31° SW 10:51:06 10° SSE
STARLINK-1054 3.9 10:43:27 10° SW 10:47:33 70° SE 10:51:41 10° NE
Cosmos 1975 4.2 10:45:51 10° NW 10:48:41 19° W 10:51:32 10° SW
Meteor 1-13 Rocket 4.5 10:43:55 10° SSW 10:49:35 52° W 10:55:10 10° N
Cosmos 2297 Rocket 3.8 10:47:14 11° W 10:50:05 16° WNW 10:53:29 10° NNW
Cosmos 2263 Rocket 3.2 10:46:43 10° S 10:52:08 50° ESE 10:57:36 10° NNE
STARLINK-1062 3.7 10:48:24 10° SW 10:52:31 79° SE 10:56:40 10° NE
ATLAS 3B R/B 2.6 10:46:12 10° SSW 10:52:55 81° WNW 10:59:36 10° NNE
COSMO-SKYMED 1 3.3 10:50:29 10° SSE 10:54:44 60° ENE 10:59:01 10° N
STARLINK-1053 3.6 10:53:22 10° SW 10:57:30 88° SE 11:01:39 10° NE
Cosmos 1867 4.2 10:52:41 10° SSW 10:58:01 61° ESE 11:03:23 10° NE
Cosmos 1484 Rocket 3.1 10:54:53 10° N 10:58:31 42° WNW 11:02:04 10° SW
CRYOSAT 2 4.5 10:55:08 10° N 11:00:00 83° E 11:04:51 10° S
STARLINK-1061 3.6 10:58:22 10° SW 11:02:30 83° NW 11:06:39 10° NE
Cosmos 1627 Rocket 4.5 10:57:27 10° SSW 11:03:36 71° W 11:09:44 10° N
Cosmos 2227 4.3 10:59:56 10° SSW 11:05:34 86° ESE 11:11:13 10° NNE
Meteor 1-4 Rocket 3.7 11:03:42 10° SW 11:06:53 26° WNW 11:10:06 10° NNW
STARLINK-1067 3.6 11:03:20 10° SW 11:07:27 74° NW 11:11:35 10° NE
Chunghua 1 4.5 11:05:54 10° WNW 11:09:35 90° E 11:13:18 10° ESE
Cosmos 1674 Rocket 4.3 11:05:41 10° SW 11:09:42 33° W 11:13:43 10° NNW
USA 234 4.0 11:04:59 10° S 11:10:32 30° SW 11:16:06 10° WNW
